Preview of NWS' New Version of Forecast
This preview is not operational and should not be used for support decisions.

Regional Weather Roundup (RWR)

Issued by National Weather Service (NWS)

                            
000
ASUS43 KLSX 231957
RWRMO 

WEATHER SUMMARY FOR MISSOURI
NATIONAL WEATHER SERVICE SPRINGFIELD MO
200 PM CST SAT FEB 23 2019

NOTE: "FAIR" INDICATES FEW OR NO CLOUDS BELOW 12,000 FEET WITH NO
       SIGNIFICANT WEATHER AND/OR OBSTRUCTIONS TO VISIBILITY.
       CURRENT SKY AND/OR WEATHER CONDITIONS ARE NOT AVAILABLE FOR
       CHILLICOTHE AND FARMINGTON.

MOZ001>031-035>038-043-044-053-054-232100-
...NORTHERN AND WESTERN MISSOURI...
  
CITY           SKY/WX    TMP DP  RH WIND       PRES   REMARKS
KANSAS CTY INT CLOUDY    38  37  97 E15       29.44F FOG     WCI  29  
LEE'S SUMMIT   FOG       40  40 100 E10       29.46F VSB 1/2          
ST JOSEPH      LGT RAIN  36  31  82 N9        29.48F WCI  29          
CHILLICOTHE      N/A     41  40  96 E6        29.53F                  
     
$$
MOZ066>068-077>081-088>096-101>105-232100-
...SOUTHWEST MISSOURI...
  
CITY           SKY/WX    TMP DP  RH WIND       PRES   REMARKS
SPRINGFIELD    CLOUDY    58  54  86 S18       29.52F                  
JOPLIN         MOSUNNY   62  41  46 SW31G45   29.51F                  
BRANSON        MOSUNNY   64  50  59 SW18G25   29.58F                  
               
$$
MOZ032>034-039>042-045>050-055>058-069>072-232100-
...CENTRAL MISSOURI...  
  
CITY           SKY/WX    TMP DP  RH WIND       PRES   REMARKS
COLUMBIA       FOG       47  47 100 E13       29.55F VSB 1/2          
JEFFERSON CITY CLOUDY    52  50  93 SE9       29.55F                  
ROLLA          CLOUDY    57  53  86 S15G25    29.58F                  
SEDALIA        HAZE      45  31  58 E9        29.50F VSB 1/4          
WARRENSBURG    CLOUDY    41  41 100 E9        29.48F FOG              
               
$$
MOZ051-052-059>065-232100-
...EAST CENTRAL MISSOURI...
  
CITY           SKY/WX    TMP DP  RH WIND       PRES   REMARKS
ST LOUIS INTL  LGT RAIN  50  49  96 SE15      29.65F FOG              
                   
$$
MOZ072>076-082>087-097>100-106>115-232100-
...SOUTH CENTRAL AND SOUTHEAST MISSOURI...
  
CITY           SKY/WX    TMP DP  RH WIND       PRES   REMARKS
CAPE GIRARDEAU PTSUNNY   58  56  93 SE14G24   29.67F                  
POPLAR BLUFF   CLOUDY    58  58 100 SE8       29.64F                  
WEST PLAINS    CLOUDY    59  55  87 S10       29.61F                  
                                       
$$